Flag for Germany Weather past 2 weeks in Germering, Bavaria, Germany

Now
63 °F

Broken clouds.


Feels Like: 63 °F
Forecast: 60 / 72 °F
Wind: 13 mph from West

Location: Oberpfaffenhofen

Current Time: Jul 30, 2014 at 10:24:28 PM

Latest Report: Jul 30, 2014 at 7:20 PM


Visibility: N/A

Pressure: 29.86 "Hg

Humidity: 88%

Dew point: 59 °F

Location of GermeringLocation

Historic Weather in Germering — Graph

°F

Germering temperature yesterday

Maximum temperature yesterday: 70 °F (at 4:20 PM)
Minimum temperature yesterday: 61 °F (at 6:50 AM)
Average temperature yesterday: 64 °F

Past Weeks' High & Low Weather Summary

 TemperatureHumidityPressure
High90 °F (Jul 19, 5:50 PM)100% (Jul 16, 6:50 AM)30.24 "Hg (Jul 16, 6:50 AM)
Low52 °F (Jul 24, 6:50 AM)21% (Jul 19, 5:20 PM)29.77 "Hg (Jul 29, 3:20 PM)
Average70 °F65%29.98 "Hg
* Reported Jul 16 6:50 AM — Jul 30 7:20 PM, Germering, Weather by CustomWeather, © 2014

Note: Actual official high and low records may vary slightly from our data, if they occured in-between our weather recording intervals... More about our weather records

Advertising

Germering weather history for previous 24 hours

 ConditionsComfort  
Time TempWeatherWind HumidityBarometerVisibility
7:20 PM
Jul 30
63 °FBroken clouds.13 mph88%29.86 "HgN/A
6:50 PM63 °FSprinkles. Broken clouds.12 mph94%29.86 "HgN/A
6:20 PM63 °FRain. Broken clouds.9 mph94%29.86 "Hg6 mi
5:50 PM63 °FRain. Broken clouds.9 mph94%29.86 "Hg4 mi
5:20 PM63 °FRain showers. Broken clouds.12 mph94%29.86 "Hg4 mi
4:50 PM66 °FSprinkles. Broken clouds.12 mph78%29.86 "Hg4 mi
4:20 PM66 °FSprinkles. Broken clouds.13 mph78%29.83 "HgN/A
3:50 PM66 °FSprinkles. Broken clouds.13 mph78%29.83 "HgN/A
3:20 PM66 °FPartly sunny.10 mph78%29.83 "HgN/A
2:50 PM66 °FBroken clouds.8 mph78%29.83 "HgN/A
2:20 PM66 °FBroken clouds.9 mph78%29.83 "HgN/A
1:50 PM64 °FPartly sunny.10 mph83%29.83 "HgN/A
1:20 PM66 °FMostly cloudy.13 mph78%29.83 "HgN/A
12:50 PM64 °FMostly cloudy.10 mph83%29.83 "HgN/A
12:20 PM63 °FOvercast.9 mph88%29.83 "HgN/A
11:50 AM63 °FOvercast.7 mph88%29.83 "HgN/A
11:20 AM63 °FOvercast.9 mph88%29.83 "HgN/A
10:50 AM63 °FMostly cloudy.9 mph88%29.83 "HgN/A
10:20 AM63 °FMostly cloudy.8 mph88%29.83 "HgN/A
9:50 AM63 °FMostly cloudy.9 mph83%29.83 "HgN/A
9:20 AM61 °FMostly cloudy.8 mph88%29.83 "HgN/A
8:50 AM61 °FMostly cloudy.12 mph88%29.80 "HgN/A
8:20 AM61 °FMostly cloudy.8 mph88%29.83 "HgN/A
7:50 AM61 °FMostly cloudy.9 mph88%29.83 "HgN/A
7:20 AM61 °FOvercast.8 mph88%29.80 "HgN/A
6:50 AM61 °FOvercast.8 mph88%29.80 "HgN/A
Weather by CustomWeather, © 2014

See weather overviewHow to use our weather pages